Location: Boiro
(42.6475°N, 8.8834°W)
Time: 00:46:14
(UTC+01:00)

Transit 2A Rocket - Pass Details

Date: 02 December 2021
Orbit: 584 x 917 km, 66.7° (Epoch: 23 January)

Event Time Altitude Azimuth Distance (km) Brightness Sun altitude
Rises 19:08:46 0° 323° (NW) 3,554 8.7 -11.9°
Reaches altitude 10° 19:11:28 10° 316° (NW) 2,590 8.1 -12.3°
Maximum altitude 19:17:03 41° 249° (WSW) 1,253 6.7 -13.3°
Drops below altitude 10° 19:22:19 10° 181° (S) 2,427 7.8 -14.2°
Sets 19:24:47 0° 174° (S) 3,306 8.4 -14.7°
